Date String (YYYY-MM-DD hh:mm:ss) UTC,Instrument flags,Ambient pressure (hPa),Sample flow (lpm),Bypass flow (lpm),Sample temperature (°C),Ambient temperature (°C),ASC tube jacket temperature (°C),LED temperature (°C),Box temperature (°C),Sample RH (%),Span deviation,Mass concentration (μg/m³),Mass concentration (μg/m³),Mass concentration (μg/m³)
DateTimeUTC,F1_M11,P_M11,Q1_M11,Q2_M11,T1_M11,T2_M11,T3_M11,T4_M11,T5_M11,U1_M11,ZSPAN_M11,X0_M11,X2_M11,X1_M11
2022-11-18 04:00:00,,0833.4,4.98,0.00,21.8,21.6,00.0,30.7,23.7,10.2,0000.0,0006.61,0003.88,0003.68
2022-11-18 04:01:00,,0833.5,5.01,0.00,21.8,21.2,00.0,30.7,23.6,10.2,0000.0,0006.68,0003.90,0003.69
2022-11-18 04:02:00,,0833.4,5.01,0.00,21.8,20.7,00.0,30.7,23.5,10.2,0000.0,0006.73,0003.93,0003.71
2022-11-18 04:03:00,,0833.4,4.99,0.00,21.7,20.3,00.0,30.7,23.3,10.3,0000.0,0006.46,0003.97,0003.73
2022-11-18 04:04:00,,0833.4,4.99,0.00,21.6,19.9,00.0,30.7,23.2,10.3,0000.0,0005.92,0004.01,0003.76
2022-11-18 04:05:00,,0833.4,5.01,0.00,21.6,19.8,00.0,30.7,23.2,10.3,0000.0,0005.92,0004.03,0003.79
2022-11-18 04:06:00,,0833.4,5.00,0.00,21.6,19.7,00.0,30.7,23.1,10.4,0000.0,0006.13,0004.06,0003.82
2022-11-18 04:07:00,,0833.5,5.00,0.00,21.5,19.6,00.0,30.6,23.1,10.4,0000.0,0006.20,0004.09,0003.85
2022-11-18 04:08:00,,0833.4,5.00,0.00,21.5,19.5,00.0,30.6,23.1,10.4,0000.0,0006.26,0004.13,0003.88
2022-11-18 04:09:00,,0833.4,5.01,0.00,21.5,20.4,00.0,30.5,23.2,10.4,0000.0,0006.17,0004.14,0003.91
2022-11-18 04:10:00,,0833.5,5.00,0.00,21.6,21.4,00.0,30.5,23.5,10.4,0000.0,0006.14,0004.15,0003.94
2022-11-18 04:11:00,,0833.4,5.00,0.00,21.7,21.6,00.0,30.5,23.6,10.3,0000.0,0006.04,0004.15,0003.95
2022-11-18 04:12:00,,0833.5,4.99,0.00,21.7,21.2,00.0,30.6,23.5,10.3,0000.0,0006.03,0004.15,0003.97
2022-11-18 04:13:00,,0833.4,5.00,0.00,21.7,20.9,00.0,30.6,23.5,10.3,0000.0,0005.98,0004.15,0003.97
2022-11-18 04:14:00,,0833.4,5.01,0.00,21.7,20.6,00.0,30.6,23.4,10.3,0000.0,0006.11,0004.14,0003.98
2022-11-18 04:15:00,,0833.4,5.00,0.00,21.6,20.4,00.0,30.6,23.3,10.3,0000.0,0006.29,0004.16,0003.99
2022-11-18 04:16:00,,0833.4,5.00,0.00,21.6,20.3,00.0,30.6,23.3,10.3,0000.0,0006.45,0004.20,0004.02
2022-11-18 04:17:00,,0833.4,5.00,0.00,21.6,20.1,00.0,30.6,23.3,10.3,0000.0,0006.61,0004.21,0004.03
2022-11-18 04:18:00,,0833.4,5.00,0.00,21.6,19.9,00.0,30.6,23.2,10.3,0000.0,0006.35,0004.21,0004.03
2022-11-18 04:19:00,,0833.5,5.01,0.00,21.5,19.9,00.0,30.6,23.2,10.3,0000.0,0006.42,0004.23,0004.04
2022-11-18 04:20:00,,0833.4,5.01,0.00,21.6,20.8,00.0,30.5,23.4,10.3,0000.0,0006.55,0004.24,0004.03
2022-11-18 04:21:00,,0833.4,5.00,0.00,21.7,21.8,00.0,30.5,23.6,10.2,0000.0,0006.54,0004.23,0004.02
2022-11-18 04:22:00,,0833.5,5.00,0.00,21.8,22.0,00.0,30.5,23.8,10.1,0000.0,0006.54,0004.22,0004.01
2022-11-18 04:23:00,,0833.4,4.98,0.00,21.8,21.5,00.0,30.6,23.7,10.1,0000.0,0006.62,0004.23,0004.00
2022-11-18 04:24:00,,0833.4,5.01,0.00,21.8,21.1,00.0,30.6,23.6,10.0,0000.0,0006.69,0004.23,0003.99
2022-11-18 04:25:00,,0833.4,5.01,0.00,21.8,20.7,00.0,30.7,23.5,10.0,0000.0,0006.60,0004.23,0003.98
2022-11-18 04:26:00,,0833.5,5.00,0.00,21.7,20.5,00.0,30.7,23.4,10.0,0000.0,0006.40,0004.20,0003.96
2022-11-18 04:27:00,,0833.5,5.00,0.00,21.7,20.3,00.0,30.7,23.4,10.0,0000.0,0006.30,0004.19,0003.95
2022-11-18 04:28:00,,0833.5,4.99,0.00,21.6,20.2,00.0,30.7,23.3,10.0,0000.0,0006.15,0004.19,0003.95
2022-11-18 04:29:00,,0833.4,5.00,0.00,21.6,20.1,00.0,30.6,23.3,10.0,0000.0,0006.15,0004.18,0003.94
2022-11-18 04:30:00,,0833.4,5.00,0.00,21.6,20.4,00.0,30.6,23.3,10.0,0000.0,0006.11,0004.17,0003.93
2022-11-18 04:31:00,,0833.4,5.01,0.00,21.7,21.4,00.0,30.6,23.6,10.0,0000.0,0006.02,0004.14,0003.91
2022-11-18 04:32:00,,0833.5,4.98,0.00,21.8,22.0,00.0,30.6,23.8,09.9,0000.0,0005.99,0004.12,0003.89
2022-11-18 04:33:00,,0833.4,5.02,0.00,21.9,21.6,00.0,30.6,23.8,09.9,0000.0,0006.00,0004.10,0003.87
2022-11-18 04:34:00,,0833.4,5.00,0.00,21.8,21.2,00.0,30.7,23.7,09.9,0000.0,0005.91,0004.07,0003.85
2022-11-18 04:35:00,,0833.5,4.99,0.00,21.8,20.8,00.0,30.7,23.6,09.9,0000.0,0005.85,0004.04,0003.82
2022-11-18 04:36:00,,0833.5,5.00,0.00,21.8,20.6,00.0,30.7,23.5,09.9,0000.0,0005.67,0004.00,0003.79
2022-11-18 04:37:00,,0833.5,5.00,0.00,21.8,20.5,00.0,30.7,23.5,10.0,0000.0,0005.77,0004.00,0003.79
2022-11-18 04:38:00,,0833.5,5.00,0.00,21.7,20.3,00.0,30.7,23.4,10.0,0000.0,0005.83,0004.00,0003.79
2022-11-18 04:39:00,,0833.5,5.00,0.00,21.7,20.2,00.0,30.7,23.4,10.0,0000.0,0005.85,0004.01,0003.79
2022-11-18 04:40:00,,0833.6,5.01,0.00,21.7,20.4,00.0,30.7,23.4,10.0,0000.0,0006.05,0004.02,0003.78
2022-11-18 04:41:00,,0833.5,5.01,0.00,21.8,21.4,00.0,30.6,23.6,09.9,0000.0,0006.67,0004.02,0003.76
2022-11-18 04:42:00,,0833.5,5.00,0.00,21.9,22.1,00.0,30.7,23.8,09.9,0000.0,0006.67,0004.01,0003.76
2022-11-18 04:43:00,,0833.5,4.99,0.00,21.9,21.7,00.0,30.7,23.8,09.9,0000.0,0006.90,0004.04,0003.77
2022-11-18 04:44:00,,0833.5,5.00,0.00,21.9,21.3,00.0,30.8,23.7,09.8,0000.0,0006.94,0004.04,0003.77
2022-11-18 04:45:00,,0833.5,5.01,0.00,21.9,21.0,00.0,30.8,23.7,09.8,0000.0,0006.84,0004.02,0003.76
2022-11-18 04:46:00,,0833.5,5.01,0.00,21.8,20.7,00.0,30.8,23.6,09.9,0000.0,0006.83,0004.01,0003.76
2022-11-18 04:47:00,,0833.5,5.00,0.00,21.8,20.6,00.0,30.8,23.5,09.9,0000.0,0006.93,0004.04,0003.76
2022-11-18 04:48:00,,0833.5,4.99,0.00,21.8,20.4,00.0,30.8,23.5,09.9,0000.0,0006.83,0004.03,0003.76
2022-11-18 04:49:00,,0833.5,5.00,0.00,21.8,20.3,00.0,30.8,23.4,09.9,0000.0,0006.66,0004.00,0003.74
2022-11-18 04:50:00,,0833.5,5.01,0.00,21.7,20.4,00.0,30.7,23.4,09.9,0000.0,0006.59,0003.97,0003.72
2022-11-18 04:51:00,,0833.5,5.01,0.00,21.8,21.3,00.0,30.7,23.6,09.9,0000.0,0006.41,0003.94,0003.71
2022-11-18 04:52:00,,0833.5,5.00,0.00,21.9,22.1,00.0,30.7,23.9,09.8,0000.0,0005.75,0003.92,0003.70
2022-11-18 04:53:00,,0833.5,4.99,0.00,22.0,21.9,00.0,30.8,23.9,09.7,0000.0,0005.67,0003.92,0003.71
2022-11-18 04:54:00,,0833.5,5.01,0.00,22.0,21.4,00.0,30.8,23.8,09.7,0000.0,0005.50,0003.88,0003.70
2022-11-18 04:55:00,,0833.5,5.01,0.00,21.9,21.1,00.0,30.8,23.7,09.7,0000.0,0006.49,0003.85,0003.70
2022-11-18 04:56:00,,0833.5,5.00,0.00,21.9,20.8,00.0,30.8,23.7,09.7,0000.0,0006.56,0003.86,0003.70
2022-11-18 04:57:00,,0833.4,4.99,0.00,21.9,20.5,00.0,30.8,23.6,09.7,0000.0,0006.67,0003.89,0003.72
2022-11-18 04:58:00,,0833.5,5.00,0.00,21.8,20.3,00.0,30.8,23.5,09.7,0000.0,0006.54,0003.86,0003.71
2022-11-18 04:59:00,,0833.5,5.01,0.00,21.8,20.3,00.0,30.8,23.5,09.7,0000.0,0006.58,0003.86,0003.70
